Location: Munkebjergskolens Observatorium
(55.3864°N, 10.3987°E)
Time: 04:41:14
(UTC+02:00)

KKS-1 - Pass Details

Date: 03 April 2023
Orbit: 633 x 644 km, 98.2° (Epoch: 31 May)

Event Time Altitude Azimuth Distance (km) Brightness Sun altitude
Rises 23:26:55 0° 20° (NNE) 2,946 ? -24.7°
Reaches altitude 10° 23:29:16 10° 29° (NNE) 2,032 ? -24.9°
Enters shadow 23:31:55 29° 56° (ENE) 1,178 ? -25.0°
